Location: Brooks Farm Pond
(32.9618°N, 86.0700°W)
Time: 13:27:55
(UTC+00:00)

Daily predictions for brighter satellites

Satellite Brightness Start Highest point End
(mag) Time Altitude Azimuth Time Altitude Azimuth Time Altitude Azimuth
Cosmos 2219 3.8 23:14:49 10° N 23:20:07 36° ENE 23:25:21 10° SE
Cosmos 1939 Rocket 4.0 23:18:18 10° SE 23:21:26 23° ENE 23:24:33 10° NNE
Cosmos 1656 3.8 23:17:22 10° SSW 23:22:53 86° WNW 23:28:32 10° NNE
Cosmos 1892 4.0 23:20:42 10° NNE 23:23:36 20° ENE 23:26:30 10° SE
Cosmos 1300 3.7 23:22:53 10° SSW 23:26:35 51° W 23:30:18 10° N
Cosmos 968 Rocket 4.4 23:22:42 10° N 23:26:59 25° ENE 23:31:13 10° ESE
Aureole 3 Rocket 2.9 23:23:45 10° S 23:27:22 70° E 23:32:19 10° N
NOAA 12 4.2 23:22:35 10° SSE 23:27:52 89° WSW 23:33:12 10° NNW
OAO 3 Rocket 3.6 23:23:52 10° W 23:28:39 64° SSW 23:33:21 10° ESE
NOSS 3-3 (A) 3.8 23:23:17 10° SSW 23:28:53 76° ESE 23:35:04 10° NNE
NOSS 3-3 (C) 3.8 23:23:25 10° SSW 23:29:01 74° ESE 23:35:10 10° NNE
CZ-4B R/B 1.9 23:26:42 10° N 23:29:47 57° WNW 23:32:48 10° SSW
SAR-Lupe-4 3.5 23:26:56 10° NNE 23:30:31 69° ESE 23:34:03 10° S
Cosmos 1400 Rocket 3.0 23:26:46 10° S 23:30:53 82° W 23:34:58 10° N
CZ-4B R/B 3.7 23:27:01 10° S 23:32:36 68° WSW 23:38:08 10° NNW
Cosmos 2369 3.9 23:30:16 10° S 23:35:45 51° ESE 23:41:15 10° NNE
IRS-1C Rocket 4.5 23:31:23 10° SE 23:36:15 40° ENE 23:41:09 10° N
GPS 2-04 Rocket1 2.7 23:33:44 10° WSW 23:37:44 84° SSE 23:41:13 14° ENE
Cosmos 1825 4.3 23:37:03 10° NE 23:37:06 10° NE 23:37:06 10° NE
ERS-2 3.6 23:35:50 10° N 23:39:15 39° WNW 23:42:39 10° SW
Helios 1A Rocket 3.9 23:36:43 10° SE 23:40:06 25° ENE 23:43:28 10° NNE
COSMO-SKYMED 1 2.5 23:36:03 10° NNE 23:40:23 67° E 23:44:42 10° S
Delta 2 Rocket 4.2 23:36:55 10° WNW 23:41:55 68° SSW 23:47:25 10° ESE
OAO 2 Rocket 3.4 23:37:57 10° W 23:42:59 71° N 23:46:58 16° ENE
CZ-2D R/B 4.0 23:41:06 10° SE 23:44:25 30° ENE 23:47:45 10° NNE
YAOGAN 1 3.8 23:42:54 10° ESE 23:46:09 21° ENE 23:49:25 10° NNE
Cosmos 1244 Rocket 4.5 23:39:56 10° N 23:46:11 80° E 23:52:29 10° S
SAR-Lupe-1 4.3 23:44:47 10° N 23:48:19 69° WNW 23:51:49 10° SSW
Cosmos 1340 2.5 23:45:46 10° N 23:49:33 72° E 23:53:17 10° SSE
CZ-4 R/B 2.3 23:46:56 10° SE 23:50:09 25° ENE 23:53:21 10° NNE
Cosmos 2227 Rocket 2.3 23:45:18 10° N 23:50:48 50° ENE 23:56:16 10° SE
Cosmos 1812 Rocket 4.1 23:47:57 10° SSE 23:51:58 36° E 23:55:58 10° NNE
Okean O Rocket 3.3 23:50:03 10° SSW 23:54:05 37° W 23:58:07 10° NNW
